ECMWFNIL_850_rhum_000.txt.gz
RH
36 38 39 43 49 52 54 53 49 46 47 50 50 45 39 37 41 40 33 33 43 50 49 47 44 39 40 46 54 62 70 75 78 79 79 75 73 74 73 70 67 65
36 39 40 42 47 53 56 50 40 34 34 37 39 40 37 36 39 36 28 28 34 36 37 39 38 36 42 50 56 60 64 68 70 72 74 71 69 71 70 68 67 67
38 44 43 42 43 50 54 45 34 29 30 34 37 38 36 34 34 31 25 26 28 28 28 31 33 37 44 50 54 56 57 58 62 70 79 78 75 72 69 70 74 75
44 50 49 46 44 45 45 36 26 25 26 27 29 30 30 31 30 27 24 25 27 26 26 29 33 38 40 43 46 50 52 53 55 61 69 72 72 71 70 72 76 77
39 45 46 46 42 38 36 26 18 19 19 18 20 23 26 28 27 24 24 27 28 28 30 32 35 36 38 40 44 49 53 53 53 54 58 64 70 72 71 71 72 74
32 36 36 34 29 24 20 16 14 14 15 16 18 21 24 26 25 24 26 30 31 32 35 36 37 40 43 45 47 50 54 54 54 57 63 69 72 72 70 68 68 71
28 33 32 30 31 26 16 12 12 12 13 18 21 23 25 25 25 26 29 34 37 39 40 41 44 48 51 53 53 54 57 57 57 61 67 70 72 72 69 69 72 75
24 30 27 25 30 27 17 12 11 10 12 17 20 22 24 24 27 31 34 39 43 45 46 49 53 56 59 60 60 61 61 61 62 65 67 68 69 70 71 74 78 75
22 27 25 22 23 20 16 13 11 10 12 15 18 21 22 24 28 33 38 44 47 47 50 55 60 63 64 64 63 63 62 61 61 61 62 65 69 71 73 73 69 61
22 24 23 23 21 18 17 16 13 11 12 15 19 22 23 24 28 35 42 47 45 46 52 59 63 64 62 60 59 59 58 56 56 57 60 67 71 70 65 60 55 52
23 27 31 30 28 26 23 19 15 13 12 16 20 24 25 25 28 36 42 44 41 43 51 58 61 60 56 54 54 55 57 56 57 59 62 67 68 61 55 52 54 57
24 29 38 42 43 40 28 18 16 13 13 21 25 24 25 26 30 35 39 40 39 43 52 57 56 56 55 55 56 58 59 57 57 60 64 66 63 56 53 55 59 63
33 34 40 45 52 53 37 21 17 15 19 34 38 30 26 28 30 34 36 37 39 44 52 54 53 55 57 58 59 59 59 58 59 62 62 63 60 56 56 59 64 68
31 32 38 44 55 66 55 30 16 17 25 38 47 43 33 29 31 35 36 37 39 45 52 53 53 53 54 54 53 53 57 60 59 57 55 55 56 55 57 62 66 68
43 52 65 73 76 81 72 46 30 36 36 30 42 53 43 32 34 38 38 36 38 46 54 56 54 50 49 49 46 47 56 59 54 50 49 50 52 55 57 60 62 62
70 84 93 96 94 89 78 58 50 61 58 39 45 62 55 42 42 45 42 36 36 46 56 58 54 48 48 48 46 49 55 55 53 52 53 54 55 56 57 57 58 58
84 96 98 98 100 94 77 57 45 52 63 63 69 79 73 60 55 52 43 35 35 46 56 58 53 49 50 50 50 55 58 55 54 55 57 60 60 59 60 60 60 58
93 99 100 99 98 92 80 63 45 42 53 61 67 74 79 79 75 60 41 32 38 46 52 54 50 47 50 51 52 57 61 60 58 59 61 64 64 63 64 65 63 58
94 97 101 101 93 88 82 70 56 49 47 44 42 49 66 82 82 62 39 32 38 45 50 50 47 47 50 53 55 59 64 65 64 65 66 67 67 67 67 67 63 56
96 96 101 98 84 77 71 60 53 49 42 39 38 40 49 57 55 46 43 45 47 49 52 49 46 50 52 53 57 62 65 68 68 68 67 65 63 67 70 67 60 56
99 98 96 83 69 63 55 46 47 45 40 42 44 41 41 40 36 38 49 59 62 59 56 50 48 53 55 54 60 64 65 69 71 69 65 59 58 64 69 64 58 59
97 93 83 67 57 53 44 39 43 42 40 44 43 39 37 35 34 35 42 57 68 67 61 54 51 56 61 61 64 67 69 71 72 68 61 57 58 63 65 61 60 64
89 83 73 61 55 52 45 44 48 45 40 39 38 36 35 33 32 35 45 62 71 70 68 63 56 57 64 67 68 71 73 71 68 65 61 59 60 62 62 61 63 67
81 77 69 62 59 54 52 56 61 56 47 39 37 38 36 32 32 39 54 71 76 76 75 71 67 64 63 66 70 70 68 67 65 63 61 60 62 62 62 63 65 68
72 68 64 59 57 53 52 58 59 52 42 36 36 36 33 35 42 51 65 79 84 80 71 66 71 71 65 69 73 67 63 65 64 62 61 61 63 64 64 66 67 69
67 64 58 56 58 53 46 46 44 37 35 36 36 36 41 51 60 66 75 82 85 82 71 63 66 66 60 63 66 63 63 65 62 62 63 63 65 67 67 67 68 69

ECMWFNIL_850_rhum_003.txt.gz
RH
61 61 62 61 55 50 53 61 69 75 75 68 61 56 52 50 48 44 40 37 34 38 48 53 50 45 41 40 44 48 53 63 70 74 77 77 72 67 65 65 64 62
58 55 54 52 47 43 47 55 63 70 69 58 50 47 44 39 35 34 39 42 38 34 37 43 43 41 39 39 43 47 54 64 71 73 80 84 79 74 71 68 67 65
55 50 46 42 38 38 45 53 58 65 63 52 46 47 41 32 29 32 38 42 40 33 30 32 33 32 33 36 41 48 55 62 64 65 73 80 83 84 79 72 68 68
51 47 40 35 33 37 48 59 62 60 55 45 41 41 34 25 24 29 33 36 34 30 26 26 27 27 29 34 40 46 51 55 56 57 61 66 73 77 73 68 66 66
44 42 35 29 31 38 52 64 63 55 46 37 33 33 27 21 21 23 27 27 24 24 26 25 25 27 29 34 38 40 43 46 49 51 53 55 58 61 63 66 67 66
37 34 27 23 28 37 53 67 67 61 54 42 33 30 25 21 21 23 24 23 21 22 25 27 28 29 31 34 38 40 42 44 48 53 54 54 56 59 62 65 66 66
28 24 20 20 27 38 57 75 77 74 69 52 34 25 21 20 20 22 23 21 21 25 27 29 31 32 34 37 41 47 49 47 51 56 55 54 58 60 61 62 64 67
25 23 19 20 29 44 65 78 79 80 76 56 36 25 20 19 19 20 23 23 23 27 30 32 35 37 38 41 45 50 53 53 55 58 58 59 62 62 60 61 65 69
30 28 26 28 36 50 66 72 69 75 76 58 42 37 29 23 22 25 29 30 28 30 33 37 41 41 40 43 46 50 53 54 56 59 60 63 64 62 61 63 66 66
32 26 24 27 32 42 56 65 61 65 74 61 41 35 31 25 26 33 39 39 35 34 37 42 43 40 39 41 43 44 47 50 53 57 61 63 63 60 61 65 65 61
30 19 17 19 24 29 41 57 60 61 70 60 36 26 29 29 29 34 39 40 38 37 40 43 42 38 39 41 40 37 39 45 51 57 62 64 63 60 60 62 60 54
33 20 18 21 22 25 40 55 54 57 68 57 35 29 32 33 33 33 34 38 42 42 42 43 40 36 41 46 43 35 34 43 52 58 62 61 58 55 54 55 53 50
46 35 23 20 20 28 53 64 52 58 72 57 36 33 33 34 37 34 30 38 48 50 47 44 39 36 41 49 48 39 35 43 54 59 60 56 49 48 49 50 51 51
64 58 36 23 20 23 44 64 67 75 77 55 40 39 35 35 39 35 30 35 50 59 56 50 44 38 39 47 49 42 37 43 53 57 56 52 46 45 47 49 50 52
76 76 59 39 27 19 26 50 75 87 74 49 40 39 32 31 38 41 38 36 47 60 61 56 51 41 38 43 46 42 39 44 50 53 56 54 49 47 49 50 52 54
81 84 79 62 45 31 22 28 50 70 70 55 42 33 29 34 44 47 43 39 45 54 59 60 55 44 39 44 47 46 45 48 50 53 59 61 56 53 53 53 54 57
89 88 87 81 70 58 45 39 41 50 63 68 57 40 35 47 57 50 41 43 48 49 56 61 59 52 47 49 54 54 53 55 56 57 61 64 62 58 55 55 57 60
97 93 91 91 90 86 80 72 54 39 50 71 73 58 47 50 58 53 51 60 57 47 54 64 63 60 57 56 61 62 60 62 62 61 63 65 65 64 61 61 63 64
99 98 98 96 96 96 90 81 67 53 55 66 71 71 63 53 55 60 68 78 66 46 52 64 61 58 58 60 66 65 62 62 62 63 67 69 70 70 67 68 69 69
99 100 100 96 93 89 82 81 83 79 73 67 64 70 69 59 62 67 68 79 78 57 49 50 43 43 55 67 73 70 67 69 69 69 71 71 71 73 72 73 73 72
101 99 100 98 93 86 81 84 90 88 86 83 77 78 75 65 68 70 68 81 85 60 41 37 34 40 61 77 79 75 75 76 73 70 69 70 71 73 72 73 71 71
100 98 101 100 96 93 89 87 85 85 89 91 88 89 83 66 60 70 82 91 81 52 36 37 40 53 72 79 76 76 76 74 70 65 63 65 69 69 67 68 69 70
95 98 100 99 100 99 89 73 67 72 84 91 90 93 86 67 63 77 85 79 62 44 36 38 46 63 77 76 71 69 68 67 66 62 59 60 62 64 65 67 69 71
89 93 96 97 99 93 74 57 53 60 70 78 80 84 80 68 70 80 72 53 42 39 37 38 46 59 66 68 70 67 65 66 64 60 59 59 59 63 67 69 70 71
81 86 91 93 89 74 57 50 52 53 57 61 66 70 70 67 70 72 57 40 37 41 41 41 46 51 54 60 64 61 57 56 52 50 53 53 55 61 67 68 68 70
76 83 88 84 72 59 50 50 53 53 56 62 66 65 64 65 67 61 46 37 39 43 44 44 48 51 52 52 52 51 49 46 44 44 46 49 54 62 66 67 68 69

ECMWFNIL_850_rhum_006.txt.gz
RH
61 63 64 65 66 66 65 60 61 62 62 68 74 76 79 85 88 83 85 86 67 44 35 40 46 51 61 60 47 53 70 76 80 81 77 69 65 70 73 74 79 79
58 60 60 64 66 64 62 57 56 59 59 61 65 68 73 84 87 83 85 82 63 50 46 48 51 49 59 73 65 64 75 77 78 81 75 71 71 70 72 75 79 79
55 56 55 61 62 58 58 57 55 57 58 58 60 63 67 77 83 79 76 70 60 61 63 63 65 57 55 70 76 78 83 79 78 83 80 74 72 74 77 79 81 82
47 49 51 57 60 58 56 56 56 57 58 58 58 64 67 68 73 69 61 56 53 60 69 70 73 73 66 67 73 78 84 82 80 83 83 79 73 71 74 77 80 81
42 45 51 56 59 57 55 57 57 54 55 59 61 67 67 58 56 54 45 43 45 54 70 75 72 74 75 71 70 73 79 83 82 81 83 83 80 76 75 78 79 78
41 45 49 51 50 49 51 55 51 42 48 62 67 71 66 50 42 43 36 37 49 63 79 83 76 77 81 77 67 62 66 74 78 82 85 83 80 78 78 80 82 79
40 46 46 43 42 42 44 46 40 32 44 65 74 76 69 50 39 38 31 29 44 64 73 67 58 59 67 68 62 57 58 61 67 75 82 82 80 80 80 81 80 78
36 39 39 37 39 40 37 36 33 29 41 63 77 80 71 53 39 34 27 24 33 47 53 47 38 36 42 48 56 62 63 67 74 79 79 80 81 80 80 78 76 76
29 29 32 34 34 33 30 29 27 26 39 61 78 83 72 53 40 34 29 28 32 35 41 42 37 33 35 40 50 58 60 63 74 81 81 82 82 80 79 78 77 78
28 26 25 27 28 28 30 32 28 24 35 58 76 82 74 53 38 35 29 26 29 32 35 36 35 35 38 43 47 51 51 51 62 75 81 82 80 75 72 70 73 77
26 24 22 24 23 24 32 37 32 24 33 55 68 72 71 55 36 28 27 31 35 38 40 38 36 36 38 45 49 49 47 48 62 79 83 80 74 60 50 53 63 72
27 25 21 17 20 35 50 45 31 25 35 54 62 65 69 60 39 24 28 41 43 37 37 41 41 37 37 45 50 51 49 47 62 80 83 80 72 54 47 56 66 73
27 26 23 28 44 65 69 49 28 24 36 55 64 63 58 49 38 28 31 45 46 36 33 38 42 39 39 45 49 52 53 52 62 78 79 78 74 64 62 70 75 77
33 38 51 69 76 70 60 46 31 25 35 52 56 47 39 37 36 29 27 36 43 41 37 38 42 40 38 44 48 49 52 55 63 74 77 78 78 75 73 73 74 76
58 69 86 95 87 70 57 44 29 23 31 39 36 29 35 49 50 35 26 31 37 43 44 40 41 43 38 37 40 42 47 54 60 66 74 80 81 81 80 78 81 83
81 90 98 97 90 81 71 52 33 26 26 27 26 26 38 61 68 51 34 32 35 43 50 45 41 44 40 34 36 39 44 53 60 60 64 70 74 80 84 82 83 84
96 97 93 89 85 82 78 69 56 40 27 24 27 27 31 49 68 65 50 40 36 40 51 50 43 43 41 35 37 43 47 55 61 60 60 62 65 73 77 74 73 74
100 94 84 83 85 83 81 80 74 60 41 29 26 26 27 36 57 69 61 48 39 38 49 54 45 40 39 37 44 52 55 59 63 65 69 69 65 63 65 68 71 72
100 91 81 85 90 89 88 88 87 78 61 43 33 29 27 28 44 64 68 59 47 42 53 57 46 39 39 42 55 65 64 64 68 70 72 73 67 62 63 68 72 73
101 92 86 91 92 92 94 94 92 87 77 64 50 41 33 29 40 62 72 66 54 49 59 60 45 41 46 53 67 76 69 62 63 66 70 70 67 65 66 72 75 75
96 92 91 92 92 94 96 94 92 88 85 80 67 54 43 36 49 67 68 61 61 63 66 60 48 51 62 70 79 78 62 49 48 57 68 70 68 70 73 75 75 72
87 88 92 90 91 95 95 94 91 85 85 88 81 70 57 48 61 72 63 63 78 80 69 60 57 63 73 80 82 70 50 39 40 52 68 73 72 76 78 76 71 66
77 81 83 83 88 94 93 92 91 87 89 94 93 91 84 76 78 75 61 65 84 85 72 64 64 69 75 76 71 55 40 36 40 52 67 73 71 72 72 68 64 60
64 71 74 77 84 89 92 95 95 94 96 99 99 101 100 95 93 89 80 83 92 89 78 73 75 76 69 60 52 42 38 39 44 55 69 74 71 66 60 56 55 57
53 64 72 78 82 84 89 97 100 98 98 99 99 98 98 100 100 97 95 97 98 93 81 77 81 76 59 48 44 39 38 42 49 59 66 66 62 56 50 49 51 55
43 58 69 75 78 80 84 91 98 100 99 98 99 97 98 99 97 94 96 96 94 92 83 71 70 69 58 48 44 41 41 46 52 56 54 51 52 52 53 53 53 56

ECMWFNIL_850_rhum_009.txt.gz
RH
52 51 51 53 55 61 69 76 76 72 74 78 77 76 76 78 80 77 75 77 80 83 76 58 46 45 55 59 44 43 64 75 76 77 77 80 79 77 79 77 75 78
53 50 49 52 55 58 62 71 76 73 68 66 70 79 81 81 85 82 78 80 81 81 71 55 42 30 41 66 58 39 52 70 76 78 78 81 82 80 82 79 75 76
53 52 50 50 55 61 61 63 66 64 61 60 64 77 81 79 85 83 78 82 84 80 70 60 57 39 31 58 68 55 60 72 77 79 77 79 83 85 86 82 76 74
52 53 53 49 53 62 65 64 63 56 60 69 71 76 77 75 81 80 73 77 80 80 77 67 69 66 49 48 58 62 73 79 78 78 78 79 82 84 85 84 83 80
53 54 55 51 51 59 65 65 64 61 65 74 77 76 71 65 72 78 77 74 65 69 83 75 66 75 71 54 48 56 68 77 78 78 78 79 79 79 79 80 81 81
54 55 57 57 49 48 58 65 69 72 74 78 79 73 63 55 61 73 79 78 66 65 80 79 64 67 71 61 53 55 61 70 78 81 81 81 79 76 74 73 76 80
53 53 56 63 55 47 55 65 68 67 68 77 77 64 57 55 59 68 67 61 62 66 62 55 54 59 61 54 44 44 51 57 63 66 69 77 81 79 77 76 77 80
49 50 52 59 63 63 63 64 65 58 55 67 69 56 53 57 62 65 55 36 37 49 44 37 46 56 56 46 33 31 37 41 52 62 66 72 78 80 82 81 81 81
48 51 53 58 65 68 63 62 67 59 50 55 55 49 50 55 58 52 39 28 24 27 30 33 42 47 46 40 32 32 32 30 47 72 81 83 82 80 81 82 83 83
47 51 59 68 69 66 62 66 69 58 49 45 38 36 40 43 44 34 24 30 29 18 17 25 33 36 36 35 34 36 35 29 36 53 70 80 78 74 79 84 83 81
42 54 71 76 70 62 58 64 66 53 46 43 29 25 27 26 27 21 16 29 35 24 17 20 27 33 36 38 40 42 36 29 32 40 52 64 63 61 74 85 83 80
41 62 82 75 60 53 43 46 56 45 36 39 31 23 22 20 20 17 15 29 40 33 20 18 27 36 39 39 45 54 45 30 30 39 50 60 56 57 75 85 81 79
60 72 75 55 44 43 36 41 54 44 31 32 29 23 21 20 20 20 19 27 41 41 25 19 28 38 42 41 44 54 49 35 30 34 44 51 45 51 74 83 78 76
83 80 60 36 33 37 35 39 43 36 30 28 25 23 21 21 21 22 21 22 35 47 36 22 29 41 44 42 41 45 45 39 34 30 35 41 36 39 56 69 73 76
87 80 62 42 37 36 33 32 27 21 22 23 22 21 20 21 22 22 24 22 30 47 44 30 32 43 45 42 41 43 43 41 36 31 33 41 43 42 47 58 69 74
85 83 79 66 50 37 31 30 23 17 17 16 18 21 20 21 22 22 28 32 36 48 50 39 35 40 42 42 41 42 42 40 37 32 32 41 49 50 50 53 56 58
87 86 85 77 63 50 42 38 32 26 23 21 21 22 21 20 20 22 29 37 47 58 57 48 41 39 39 39 40 42 42 40 36 32 34 43 52 55 52 50 48 48
89 86 83 77 71 66 60 54 48 42 38 34 30 29 26 23 21 24 27 35 51 65 65 56 47 42 39 39 40 42 42 39 37 39 42 44 50 57 57 55 53 52
84 80 81 79 75 73 74 71 67 62 57 52 47 42 36 28 24 26 29 35 50 66 69 63 57 52 48 43 41 42 43 42 43 49 53 49 51 60 63 63 63 60
79 78 82 80 73 74 80 81 80 77 74 69 63 57 52 45 35 32 34 38 49 65 70 68 70 71 64 54 47 44 44 46 51 58 61 56 56 65 69 68 67 62
77 85 86 78 75 80 86 88 88 88 86 83 79 75 74 67 53 44 44 45 51 63 70 71 76 80 75 63 53 48 48 54 61 65 66 63 62 67 71 70 68 63
83 92 88 77 78 86 90 91 90 91 90 90 90 88 85 81 75 68 63 58 57 63 73 80 81 81 77 66 56 53 55 61 64 65 68 68 62 60 65 73 77 75
94 96 87 79 80 84 89 92 92 92 93 95 96 96 91 88 90 90 84 78 74 75 82 86 81 78 79 74 66 61 59 59 57 59 68 70 59 59 70 78 75 68
96 87 77 77 83 87 92 97 97 97 98 99 100 100 94 86 85 87 88 88 87 86 89 88 80 78 82 79 72 67 62 59 57 62 75 70 57 64 80 78 65 57
85 79 75 74 76 82 90 96 99 99 99 100 100 98 95 90 87 88 89 91 90 90 92 90 86 88 89 83 76 72 69 71 72 76 80 69 57 70 84 73 59 58
78 84 88 83 77 82 93 97 98 98 98 99 98 95 94 93 92 92 93 93 93 94 95 93 90 94 94 85 77 72 71 79 82 76 69 62 63 82 91 71 57 61

ECMWFNIL_850_rhum_015.txt.gz
RH
44 48 53 58 63 70 73 70 68 66 61 54 50 53 54 54 54 51 51 55 55 54 56 58 64 57 32 22 32 39 44 48 41 32 25 22 25 32 41 52 61 67
43 47 53 57 60 67 70 67 65 62 56 51 50 52 55 57 57 54 53 57 52 48 52 55 53 42 23 17 24 27 31 35 32 28 27 29 28 29 39 56 65 66
44 46 52 57 59 62 65 66 66 60 50 46 48 51 55 59 60 58 57 57 52 47 51 49 35 22 15 16 20 22 24 27 25 24 31 38 36 34 45 60 66 65
46 46 51 56 59 60 62 64 66 60 51 45 46 49 55 60 60 59 59 60 56 52 53 49 35 22 15 15 18 21 22 23 24 23 29 39 42 43 51 62 69 70
46 46 50 55 59 61 61 61 60 56 51 46 44 46 53 59 59 58 59 60 58 56 54 52 46 31 17 14 17 20 22 23 24 24 26 35 42 47 55 65 68 67
50 46 50 53 57 59 59 58 55 52 48 45 44 46 50 55 58 58 58 57 57 57 54 50 48 38 22 15 15 19 22 23 25 25 26 31 38 44 52 59 61 61
52 46 49 53 55 55 55 54 53 50 47 44 45 46 48 52 57 58 57 56 55 55 53 49 46 43 32 20 14 17 21 24 25 26 27 31 36 40 43 46 49 54
51 45 47 52 54 52 51 51 50 49 47 45 45 46 48 51 56 58 58 57 55 54 54 50 45 45 42 29 17 15 20 24 26 28 30 32 34 37 38 38 39 43
53 46 47 52 53 50 47 46 47 47 46 44 43 44 47 50 53 56 56 56 56 55 54 53 48 46 47 38 22 15 19 25 27 30 32 33 33 35 37 39 37 37
59 49 49 52 52 47 43 42 44 44 43 42 41 42 44 48 51 53 54 54 55 55 55 55 51 46 48 45 30 18 18 25 30 32 33 32 32 33 34 36 35 34
65 57 52 49 48 44 40 42 43 41 40 39 39 40 41 46 49 52 53 52 52 53 55 55 53 49 48 46 38 24 18 24 31 33 34 33 33 34 33 32 30 29
71 64 54 46 43 39 38 43 44 40 39 36 34 35 38 43 48 50 51 51 50 51 53 54 54 53 51 49 44 32 20 22 32 35 34 34 34 35 35 36 36 34
70 63 52 43 38 34 35 42 44 42 40 34 29 29 32 37 43 47 49 51 52 51 52 54 55 56 56 54 50 41 26 20 29 36 36 35 36 37 38 40 41 37
63 56 48 39 32 31 35 40 42 42 41 37 33 29 26 27 32 37 44 50 53 53 53 55 59 60 60 58 55 49 34 21 25 35 37 36 36 38 38 39 38 35
59 53 48 39 32 32 35 36 39 41 43 43 41 35 29 28 30 34 41 46 51 55 56 59 63 64 63 61 59 54 44 28 23 31 38 37 37 38 40 42 42 39
60 53 50 44 36 33 33 36 38 41 45 47 45 43 42 41 41 44 47 49 52 56 59 63 67 67 66 65 63 59 52 37 25 29 37 39 38 40 42 46 48 45
64 56 52 48 42 38 37 40 43 45 50 53 52 54 55 55 55 55 55 57 59 61 64 66 68 70 70 70 69 66 60 47 32 28 35 40 40 41 43 44 47 49
68 61 56 53 51 49 46 47 52 57 61 63 62 62 64 65 67 66 63 63 65 67 70 70 71 73 74 74 73 71 68 57 40 30 34 40 42 42 43 42 46 55
70 66 61 59 58 57 53 55 63 70 71 70 68 67 69 72 73 72 70 68 69 70 72 73 75 78 80 78 77 76 74 65 50 36 34 38 42 43 44 44 45 56
67 67 66 66 64 62 62 64 70 75 75 75 74 72 71 72 72 74 74 74 73 72 72 74 78 82 84 83 81 80 77 72 60 44 35 38 43 43 44 47 47 54
62 66 68 69 68 68 70 71 74 77 79 79 77 73 70 70 70 72 73 75 76 76 76 79 83 87 89 87 87 86 84 81 70 52 39 39 42 44 46 48 49 56
58 63 68 70 69 70 75 78 78 80 80 79 76 74 73 72 71 71 71 73 75 76 79 84 88 92 92 89 89 88 86 85 75 57 42 39 47 57 60 55 55 66
55 61 68 71 68 69 77 81 80 80 78 76 75 74 74 73 71 71 71 72 74 77 82 87 89 90 88 85 83 81 80 80 72 57 45 44 54 68 70 67 71 81
52 58 65 70 68 68 73 78 80 80 77 74 74 74 73 73 72 73 75 77 80 83 85 86 85 84 82 81 80 78 77 77 74 68 59 53 54 61 65 68 72 76
49 56 63 67 67 66 67 73 78 79 76 75 75 75 75 76 77 79 82 85 86 86 86 86 85 85 84 84 83 82 81 79 79 77 70 61 55 55 57 59 60 63
49 57 62 65 65 64 67 75 78 76 76 78 80 81 82 84 86 87 88 88 88 89 90 90 88 85 83 84 85 85 85 83 81 80 77 72 67 63 61 60 59 63

ECMWFNIL_850_rhum_021.txt.gz
RH
62 63 62 59 56 54 53 51 50 52 51 51 53 53 54 55 54 55 61 68 70 71 72 64 56 55 56 52 41 33 31 32 35 40 36 28 25 29 30 30 34 40
63 65 65 63 60 56 55 53 51 51 50 50 51 51 54 57 54 53 58 65 67 66 64 59 56 55 55 48 38 32 28 25 29 35 30 22 17 18 18 20 25 32
63 65 66 65 62 58 53 51 52 52 50 50 52 52 55 58 56 54 57 62 62 60 56 56 56 55 53 49 42 40 34 23 22 26 24 19 16 16 15 16 20 26
62 64 64 64 62 59 54 49 50 52 51 51 53 55 57 59 59 56 57 60 59 56 53 54 56 54 51 49 47 48 43 29 20 22 24 22 18 17 17 17 19 22
60 61 62 62 62 62 57 48 45 47 49 50 53 56 58 60 61 58 57 59 57 55 54 54 54 52 50 49 49 48 42 31 23 22 24 24 21 19 18 18 18 20
61 62 62 62 62 63 59 47 39 42 46 49 52 56 58 59 61 59 56 57 57 54 54 55 54 51 47 46 48 44 35 28 25 22 21 22 22 21 19 19 19 20
62 63 63 64 64 64 60 47 38 39 43 47 51 55 56 58 62 61 56 56 56 53 53 54 53 50 45 43 44 40 30 25 22 20 20 21 22 21 19 19 20 20
62 63 64 65 66 66 60 47 38 37 40 46 51 54 55 57 61 62 58 56 54 52 53 55 53 50 46 44 43 38 30 25 21 18 18 20 22 21 19 20 21 21
61 63 64 65 66 65 58 47 38 36 39 43 48 52 55 57 60 62 59 56 55 53 53 55 55 53 49 46 45 42 35 30 24 18 16 19 21 21 20 21 22 24
61 63 65 65 65 63 57 49 41 36 37 41 46 51 54 56 59 62 60 58 58 56 54 54 55 55 52 49 48 47 43 37 30 22 16 17 19 20 21 22 23 25
61 63 63 63 63 61 57 52 45 38 36 39 43 47 51 55 58 62 62 59 58 57 55 53 54 56 56 52 51 51 50 46 40 31 21 16 17 20 22 23 24 26
59 61 61 61 60 59 59 57 51 43 37 37 41 44 48 52 57 61 63 60 58 57 57 55 53 55 56 55 54 54 54 53 51 45 32 20 16 18 21 23 25 27
56 57 58 58 58 58 60 61 58 49 39 36 39 42 45 49 54 60 64 63 61 59 58 58 57 56 56 56 56 56 56 57 56 54 45 31 21 17 19 23 26 28
54 55 56 56 56 58 61 64 63 56 45 38 38 41 43 46 51 57 62 66 66 63 61 61 62 60 56 57 59 59 60 59 59 59 55 46 34 23 18 20 25 29
56 57 57 56 58 58 60 63 64 61 53 43 37 38 41 45 50 56 61 66 68 67 64 64 64 61 57 57 60 62 63 63 62 62 61 58 51 38 25 19 21 29
59 58 58 58 59 59 60 63 64 66 64 52 39 36 40 44 48 54 60 66 68 66 64 63 61 59 58 59 61 64 67 67 66 65 65 64 62 55 42 26 19 25
62 60 60 59 58 59 62 64 65 68 68 61 50 41 38 41 46 52 58 63 65 64 62 59 57 58 60 62 63 67 71 73 71 69 68 68 67 64 57 43 27 22
64 64 62 60 59 61 63 65 68 70 70 68 62 49 39 37 42 48 54 58 62 63 60 56 56 60 64 64 65 69 73 75 75 74 72 72 71 68 65 59 44 28
66 68 65 62 61 61 65 69 71 71 70 68 64 56 45 38 38 43 48 54 59 60 56 53 56 62 65 66 68 71 75 76 76 77 76 75 75 73 70 67 60 45
68 69 66 65 65 66 69 72 71 70 69 68 69 67 55 40 37 41 44 47 51 53 52 53 56 60 63 66 70 74 76 77 77 78 79 78 77 77 75 73 71 63
65 67 66 67 70 72 73 73 71 71 71 71 73 68 54 42 39 37 36 40 44 48 51 53 54 57 61 65 70 73 75 77 79 81 81 81 80 79 80 78 77 75
61 64 67 70 74 77 77 75 73 71 72 73 72 66 59 56 49 38 33 36 41 45 49 50 50 54 60 64 69 74 76 79 82 84 84 83 82 81 83 84 83 81
61 64 67 71 76 79 78 75 72 71 71 71 70 69 67 62 50 39 34 35 39 44 47 47 49 54 59 66 72 76 79 82 84 85 85 84 84 85 87 89 88 86
60 63 66 71 75 76 74 72 72 71 71 69 68 68 63 55 49 44 38 35 38 42 42 45 50 55 60 67 74 77 81 84 84 86 87 86 88 91 91 90 90 89
59 64 66 68 70 70 70 70 70 70 71 70 69 67 62 59 58 53 45 39 39 40 42 50 57 59 64 71 75 79 84 86 87 89 90 90 93 94 91 90 90 90
59 63 64 63 64 67 69 69 69 71 74 74 72 69 69 70 68 62 54 48 45 44 49 57 62 64 69 75 79 83 87 89 89 90 90 91 91 91 90 92 92 92

ECMWFNIL_850_rhum_024.txt.gz
RH
58 57 56 55 55 52 50 48 46 45 41 40 44 47 49 52 53 57 64 68 69 66 66 68 69 68 66 62 57 53 53 48 37 36 39 33 24 22 26 32 40 49
60 59 59 58 59 58 54 50 48 47 44 42 44 46 49 52 54 59 65 69 68 64 63 66 68 69 65 60 55 52 49 41 33 35 35 26 20 18 19 23 30 37
60 60 60 59 60 59 56 53 51 50 48 46 45 45 48 51 53 58 65 70 70 66 64 64 68 68 63 57 54 52 45 34 29 31 30 24 19 17 16 17 19 22
58 59 60 60 60 59 57 55 54 54 54 52 48 45 46 49 52 55 61 68 70 67 63 63 67 67 59 53 52 51 44 34 29 29 27 24 20 17 16 16 15 16
55 57 58 60 61 61 60 58 56 57 57 56 52 48 46 46 49 52 57 63 66 65 62 61 67 66 57 51 51 50 47 41 37 32 26 22 20 19 18 16 15 15
55 56 57 59 61 62 62 59 58 59 60 60 57 51 46 43 45 49 53 59 63 64 62 60 64 64 56 50 50 49 47 46 47 41 29 21 21 22 22 19 17 16
56 56 57 58 60 61 61 60 59 60 62 63 62 56 48 43 42 44 49 56 61 64 63 61 62 61 54 50 49 48 46 47 51 47 35 26 24 24 23 21 18 17
53 55 56 57 59 60 60 60 60 61 63 65 65 60 51 44 41 42 45 52 59 62 64 63 61 59 54 49 48 47 45 45 48 46 36 29 27 24 22 23 20 18
51 53 55 57 59 59 59 59 60 61 64 66 67 64 55 45 40 41 43 48 54 59 64 64 62 59 54 50 49 48 45 43 44 42 34 28 26 22 21 23 21 19
52 54 55 57 59 58 59 59 60 61 64 65 67 67 61 49 41 41 43 45 49 55 62 65 63 58 53 50 49 49 48 45 44 41 34 27 24 21 20 22 21 20
52 54 55 56 57 58 58 59 59 61 63 65 67 68 64 54 44 42 42 43 45 50 57 63 62 57 52 50 50 51 51 49 46 44 38 32 27 23 21 20 20 20
53 53 54 54 55 56 57 58 59 61 63 65 67 68 66 58 47 43 42 42 43 46 52 58 61 59 52 49 49 50 52 53 50 47 44 40 36 30 24 20 18 19
52 51 51 53 54 55 56 57 58 61 63 64 66 67 65 57 47 42 41 40 41 44 49 54 59 60 56 52 50 49 50 53 53 52 49 47 44 39 33 25 19 18
50 50 51 53 54 54 56 57 58 61 64 65 66 65 61 54 45 40 40 40 40 43 47 52 57 60 58 55 52 50 48 50 54 56 54 52 51 49 45 38 29 22
50 52 53 54 56 57 57 59 59 61 64 66 65 63 58 52 46 41 39 39 40 42 46 50 55 57 57 56 54 52 49 49 53 56 57 56 55 55 55 52 45 36
53 54 56 56 56 57 57 59 60 62 65 65 65 63 58 54 49 43 39 39 40 42 44 48 52 53 53 54 55 54 53 52 52 53 56 58 59 60 61 59 57 52
54 56 59 58 55 54 55 58 61 63 64 64 64 62 59 57 52 45 39 38 40 41 43 46 47 47 48 50 54 56 57 57 55 54 55 57 60 63 64 63 63 62
54 57 60 59 56 54 53 56 59 61 62 62 62 62 61 59 53 45 40 40 41 41 42 44 44 44 44 46 50 54 57 58 57 57 57 59 62 65 67 68 68 68
55 58 59 58 57 55 55 56 57 58 58 60 60 60 61 58 51 46 44 45 45 42 40 41 42 42 43 44 47 51 55 57 58 59 60 61 63 65 69 72 74 77
57 58 59 59 59 59 59 57 56 55 56 57 58 59 61 59 55 51 50 49 47 42 39 40 39 39 40 42 45 49 52 56 59 61 62 63 66 67 70 76 80 83
59 60 61 63 64 64 63 60 57 56 55 55 57 58 59 59 57 53 50 50 48 45 42 38 36 37 39 40 44 47 51 57 61 64 65 66 69 71 74 80 83 83
57 60 63 65 68 69 67 63 59 56 55 56 57 57 59 60 60 58 56 55 55 52 46 38 34 37 39 39 42 47 53 61 66 68 69 69 71 74 78 82 83 84
55 63 66 67 69 70 66 62 59 57 57 58 58 58 59 60 62 65 65 63 61 56 47 39 36 37 38 38 41 48 57 64 68 69 70 72 74 76 80 82 83 84
56 64 66 64 64 64 62 60 58 57 58 59 59 59 59 60 63 66 69 69 66 57 48 43 41 39 38 39 43 50 58 62 64 67 71 73 75 79 81 82 83 85
54 58 58 56 57 59 62 62 59 58 58 59 60 60 60 63 67 71 74 74 70 63 57 55 53 48 44 45 49 54 58 61 64 69 73 76 78 81 83 84 85 87
52 55 54 55 56 58 61 64 63 61 59 59 60 62 66 71 74 76 78 77 75 73 69 65 64 62 60 59 58 57 57 61 67 72 75 78 80 83 85 87 88 89

ECMWFNIL_850_rhum_027.txt.gz
RH
53 52 51 50 48 45 42 39 37 37 37 37 38 38 38 38 40 43 45 46 48 50 54 59 65 70 72 70 68 68 65 55 48 43 35 27 26 30 39 47 49 49
52 53 53 54 53 50 47 43 40 39 38 37 37 37 38 38 40 43 46 48 49 50 54 59 64 69 70 68 67 67 63 52 45 41 33 26 25 27 31 37 38 38
49 51 52 53 55 54 53 51 47 45 43 42 40 39 38 39 40 43 46 49 50 51 54 60 63 65 66 66 66 68 63 52 45 42 33 26 24 25 27 29 27 25
45 47 49 51 53 55 57 57 54 51 50 49 45 43 42 40 41 43 45 48 50 51 54 59 63 63 63 64 66 67 62 51 46 42 34 27 25 24 25 25 22 19
41 43 45 48 51 53 56 57 57 56 55 54 51 47 45 42 42 44 45 48 49 50 51 55 60 63 63 63 64 65 59 50 44 39 33 26 24 24 25 24 20 16
40 42 43 45 47 50 53 55 56 57 57 57 56 52 48 46 45 45 44 46 47 48 49 51 55 60 61 60 61 61 56 48 42 38 34 27 23 24 25 24 19 15
38 40 42 44 46 48 51 53 54 55 56 57 57 55 53 51 50 47 45 45 46 46 47 48 51 56 57 57 58 58 54 48 42 39 38 33 26 23 25 24 20 16
38 40 41 43 45 47 49 51 53 54 55 57 58 56 55 55 55 53 49 45 45 45 46 48 49 53 55 56 56 56 53 47 43 41 41 40 34 28 27 24 20 18
41 42 41 42 44 46 48 50 52 52 53 55 56 56 57 57 58 59 55 48 45 44 44 47 49 51 54 55 55 56 52 47 43 41 41 42 40 37 34 25 19 19
42 42 42 44 47 50 51 51 51 52 52 53 55 57 56 56 58 60 59 53 47 43 42 44 47 49 51 53 55 55 52 48 44 42 41 40 41 42 39 29 21 19
39 40 42 44 49 51 50 50 51 51 51 52 55 57 57 56 58 60 61 58 49 42 40 42 44 46 48 51 54 55 53 50 46 44 41 39 40 42 37 29 23 20
37 39 41 42 46 47 46 46 49 51 51 51 53 56 57 57 57 59 59 57 50 42 38 39 42 44 45 48 52 54 53 51 47 45 44 41 41 41 36 29 24 21
36 37 38 40 41 40 40 43 46 49 49 49 51 54 56 56 57 59 59 57 53 46 39 38 40 42 43 45 50 52 52 52 48 46 46 44 43 41 38 32 28 26
36 37 37 38 37 36 38 41 43 46 47 48 49 52 55 55 56 58 59 58 56 50 42 39 39 41 42 43 47 51 51 51 49 46 46 47 46 45 42 37 34 33
37 38 38 37 38 38 39 41 43 44 46 47 48 50 53 55 56 58 60 60 58 52 44 42 41 40 41 42 45 49 50 50 49 47 46 47 48 49 47 43 40 40
38 40 39 39 41 41 41 42 43 44 45 47 47 49 52 55 57 59 61 62 61 53 46 44 42 39 38 40 42 46 49 50 50 49 48 47 48 50 50 48 46 45
40 42 42 42 43 44 43 44 45 45 45 47 47 50 53 56 57 59 61 64 63 56 47 43 41 38 36 38 41 45 49 51 52 52 51 49 48 48 50 51 50 49
42 44 44 43 44 45 46 47 49 48 48 48 49 50 52 54 57 59 62 64 64 59 50 43 40 36 34 36 39 42 47 51 54 56 56 54 51 48 48 50 51 53
44 45 46 46 46 48 51 52 51 50 49 49 50 50 52 55 57 59 62 63 64 62 52 42 38 35 33 35 38 40 45 50 54 57 59 60 57 53 50 50 51 54
45 45 45 47 49 51 54 54 52 51 50 51 53 54 54 55 57 59 62 63 63 63 55 43 36 33 32 34 37 39 42 47 52 56 60 62 62 59 56 54 53 53
46 46 47 50 51 53 55 54 53 53 52 52 56 58 58 59 60 60 61 62 63 63 57 46 37 32 31 33 36 38 41 45 49 52 57 62 65 63 62 61 59 57
51 53 55 56 57 59 59 58 56 54 54 55 57 59 63 67 67 64 64 64 62 62 58 48 38 32 29 31 34 36 39 43 47 50 54 60 64 65 65 65 64 63
51 53 55 55 57 58 57 56 54 52 53 55 55 58 64 66 67 72 77 73 65 61 58 50 40 33 29 29 32 35 39 42 45 50 54 58 63 66 66 66 65 65
41 42 46 49 51 52 50 50 50 51 53 54 53 56 56 56 63 76 82 77 66 60 58 53 45 36 30 28 30 32 37 41 45 51 56 59 64 67 66 66 66 66
39 41 45 48 49 50 51 51 53 55 56 56 57 59 58 61 72 80 81 77 68 61 58 56 53 47 38 32 32 32 36 42 49 56 60 62 65 67 67 67 68 69
43 45 47 49 49 51 54 56 57 57 57 58 61 63 64 70 79 83 80 75 69 66 63 56 54 55 48 39 37 38 40 46 52 57 61 64 66 67 67 68 69 70

ECMWFNIL_850_rhum_030.txt.gz
RH
38 38 39 39 40 40 40 38 36 37 37 37 38 38 38 38 38 39 38 39 40 43 45 46 47 52 59 66 71 76 75 75 87 93 84 71 46 26 27 37 54 67
37 38 38 40 40 38 38 37 37 37 35 35 36 36 36 37 38 38 38 38 39 42 43 44 47 48 51 60 67 73 73 71 81 93 89 68 39 24 24 27 37 45
40 40 42 44 43 38 38 40 39 39 37 35 34 35 36 36 37 37 37 38 39 42 46 50 54 52 49 55 62 66 69 69 80 94 93 72 43 28 24 24 34 38
44 44 45 48 46 43 44 46 44 42 40 38 36 35 36 35 35 36 35 37 38 41 49 55 57 54 51 55 59 61 63 69 82 91 92 79 51 32 26 25 36 43
41 42 45 50 49 46 48 49 47 46 43 42 40 38 38 37 36 36 35 36 37 39 46 51 52 51 51 54 58 58 57 67 80 77 79 83 63 37 27 22 26 33
37 39 43 48 46 44 48 49 48 49 47 46 46 43 42 40 39 39 37 35 36 38 43 47 50 50 51 53 57 57 53 61 76 72 62 69 67 44 28 23 20 21
34 36 39 42 40 40 45 47 48 49 49 49 50 48 47 45 44 42 40 38 37 38 41 45 48 49 50 53 54 56 53 51 67 73 54 49 58 46 27 23 21 19
30 32 35 37 38 39 42 43 44 46 47 49 51 51 50 50 49 47 44 42 40 40 40 42 46 49 50 52 51 52 53 48 53 60 44 34 43 38 24 23 21 19
26 28 30 32 34 35 37 38 40 41 42 44 47 49 50 50 51 51 49 45 43 42 42 41 44 47 49 53 53 50 51 50 48 48 39 30 33 29 23 23 21 19
24 25 26 27 28 30 32 33 35 36 37 38 41 45 48 49 50 53 52 50 47 45 45 43 42 44 47 53 57 52 49 51 50 47 41 34 31 30 27 26 24 21
25 26 26 27 27 28 30 31 33 35 36 36 38 41 45 47 48 51 53 53 51 49 48 46 44 44 44 49 55 54 48 50 52 48 44 38 34 33 32 31 31 30
26 27 28 29 30 31 34 33 33 36 38 36 35 38 42 46 47 49 51 53 54 53 52 51 49 46 45 45 51 53 48 48 54 52 46 42 38 36 34 35 37 38
24 25 26 28 30 32 35 36 34 37 41 39 36 36 39 44 46 47 48 51 53 54 55 56 55 52 50 46 48 53 48 46 52 54 49 45 40 37 35 36 38 40
25 25 24 26 28 30 32 34 34 36 40 43 41 38 38 41 43 44 46 48 52 54 54 57 58 57 56 51 50 54 49 42 48 54 53 49 43 39 37 35 38 40
31 30 28 27 29 30 30 31 33 35 39 45 46 40 37 40 42 43 45 46 49 53 54 56 59 59 58 56 54 53 46 39 43 50 54 53 47 42 38 36 38 40
37 35 32 30 29 30 29 30 34 35 37 43 46 43 40 40 42 43 45 47 48 51 53 55 57 59 58 55 50 46 40 37 39 43 50 56 52 45 41 38 39 40
37 34 33 31 30 31 32 32 34 36 39 42 45 46 44 42 43 45 46 48 49 50 53 54 56 57 58 54 49 45 39 36 38 40 44 52 53 49 43 40 41 41
34 33 33 32 33 34 35 35 36 38 40 41 45 48 49 47 47 47 47 50 53 52 51 54 55 55 55 53 50 47 41 36 38 39 41 46 51 51 45 41 42 43
36 34 33 33 35 37 39 39 39 40 40 42 46 49 54 55 53 53 52 51 56 59 53 51 55 55 55 53 50 48 43 36 36 37 39 43 47 49 48 44 43 44
38 36 36 38 40 42 45 44 42 41 42 45 49 51 56 61 64 70 66 55 62 76 68 53 53 55 55 55 52 49 43 35 34 37 38 41 44 47 50 48 45 45
34 35 38 42 44 45 46 44 43 43 43 47 51 53 54 57 62 70 69 62 74 92 85 69 62 57 54 56 53 47 43 37 36 39 39 40 43 45 48 51 50 49
29 31 34 38 41 43 43 42 40 39 40 45 50 53 54 56 57 59 64 76 89 91 83 82 79 63 54 57 51 42 40 38 37 40 40 40 42 44 46 50 53 53
27 28 31 33 36 37 37 36 36 36 40 45 48 53 56 57 58 58 62 76 86 79 73 82 85 69 58 56 49 40 38 38 37 39 41 41 41 41 44 50 55 55
30 30 31 32 32 33 32 33 36 39 43 45 47 52 56 60 66 69 65 69 78 82 82 83 80 74 68 60 50 43 39 37 38 38 39 42 42 40 43 51 56 55
35 34 32 32 31 32 33 35 38 41 43 45 46 50 57 66 76 82 80 76 78 86 93 91 85 84 81 70 58 50 42 38 39 39 40 42 40 39 44 51 57 58
34 32 30 32 33 35 37 38 40 44 47 49 52 57 63 70 75 81 85 84 81 83 89 92 92 93 91 81 69 60 52 46 42 38 38 40 40 42 47 49 57 67

ECMWFNIL_850_rhum_033.txt.gz
RH
32 33 32 33 34 34 39 46 45 41 38 40 47 46 37 35 41 56 67 58 46 49 55 54 55 60 60 64 71 74 77 72 65 71 72 73 86 87 79 76 76 76
31 32 33 34 35 36 37 41 42 42 38 34 45 54 47 39 35 40 48 46 40 43 51 54 55 58 58 56 60 69 77 73 65 74 85 86 88 86 80 74 73 73
31 31 33 35 35 36 37 38 39 41 40 36 36 45 52 50 41 35 37 39 37 37 43 50 54 55 56 54 52 57 71 74 65 68 84 92 90 85 78 74 75 69
30 31 33 34 35 36 36 37 38 37 40 40 34 33 43 53 52 42 36 36 38 37 38 44 51 53 54 56 53 50 61 72 70 68 79 90 87 83 76 67 75 76
30 30 32 33 34 36 37 35 35 35 35 36 37 34 34 42 50 50 42 36 36 38 38 39 43 48 52 55 57 53 56 69 76 72 77 89 85 77 74 59 62 79
28 29 30 32 33 33 36 33 31 33 33 32 35 37 35 35 39 45 45 40 35 36 40 41 39 42 48 53 57 57 54 63 78 75 74 89 89 79 78 61 45 60
25 27 27 29 31 30 31 31 30 31 32 34 36 36 37 36 34 36 42 44 39 36 40 46 43 39 42 50 55 57 55 57 73 79 73 83 91 85 83 69 40 34
23 24 25 26 29 30 30 30 30 31 33 36 38 37 37 37 36 36 38 42 43 40 41 47 48 40 38 45 50 53 55 55 64 72 68 73 85 84 82 74 48 26
22 23 24 24 27 30 31 32 33 35 34 34 37 39 39 37 39 41 40 41 44 44 43 45 47 42 36 41 45 46 51 58 65 69 65 68 75 71 68 72 59 33
19 21 23 24 26 28 32 37 43 45 39 31 31 39 43 41 39 43 45 44 44 45 46 43 42 39 36 38 42 43 45 51 63 71 67 64 65 57 51 58 57 39
17 19 20 20 22 25 29 35 46 55 52 39 29 33 48 52 45 42 45 46 44 44 47 46 42 38 36 36 39 43 44 45 55 67 64 57 57 55 49 48 44 34
16 17 17 17 18 20 25 29 39 55 64 57 40 30 40 54 53 43 41 44 44 44 47 49 47 43 39 37 38 42 44 43 48 56 57 53 52 53 52 50 43 34
17 16 16 17 17 17 22 26 34 50 63 67 58 41 34 45 53 47 38 39 42 43 47 49 49 48 44 39 38 41 44 45 44 47 50 50 52 55 54 52 47 39
23 19 17 17 18 19 22 26 35 47 56 63 64 55 42 40 48 48 38 34 38 41 44 48 50 51 49 43 40 40 45 47 44 42 43 46 52 59 61 59 54 47
34 30 23 21 24 25 25 28 36 44 48 55 62 62 52 44 50 58 48 34 33 36 39 43 48 51 51 47 42 40 43 49 49 43 39 41 48 56 62 65 63 56
44 41 32 27 28 31 30 29 36 42 43 47 56 63 63 54 56 70 72 56 39 33 35 39 43 48 49 48 45 42 41 46 53 51 42 39 43 49 59 68 67 60
46 42 38 33 29 32 34 33 37 42 41 42 49 60 69 66 60 67 80 80 63 45 37 35 37 43 47 48 47 45 45 46 51 55 49 42 41 42 52 65 62 55
49 41 40 38 33 33 36 37 41 44 44 45 47 53 62 67 62 58 65 78 81 69 54 43 38 38 42 46 47 46 48 50 52 57 56 49 45 42 48 59 54 46
53 45 42 39 37 38 40 43 47 47 46 47 48 52 58 60 57 52 51 61 74 78 72 59 49 43 41 43 46 47 47 50 54 60 62 58 51 46 50 52 44 41
55 46 43 41 41 44 46 46 46 44 42 45 48 53 57 56 54 53 52 53 60 70 74 69 62 58 52 45 44 47 48 49 53 57 61 61 54 55 64 56 37 35
57 47 44 43 43 44 44 41 39 37 38 43 49 52 53 54 55 54 55 56 57 61 68 69 70 70 65 54 46 45 47 50 52 54 59 62 59 63 76 67 42 34
58 52 49 47 44 42 38 35 35 36 38 45 53 60 62 61 59 56 58 59 56 53 54 58 68 75 71 61 51 46 47 49 52 54 57 61 63 67 73 65 50 50
60 56 53 50 46 41 36 34 36 39 42 47 52 59 65 66 65 63 63 62 58 55 50 49 63 77 75 70 66 58 50 48 51 54 57 60 64 68 70 62 55 66
61 58 56 52 47 40 35 36 40 42 44 46 48 54 65 72 77 78 75 70 67 67 61 55 62 71 71 73 78 73 60 53 52 53 55 58 62 66 69 66 58 64
60 58 55 50 43 38 37 40 43 45 48 50 51 59 70 76 80 84 83 81 79 78 74 67 64 68 68 69 75 78 74 68 62 60 60 57 61 73 79 76 69 63
56 54 50 46 42 42 43 45 49 54 59 60 61 70 79 80 79 80 83 86 86 83 81 75 69 70 72 69 68 72 76 77 74 73 68 57 62 84 92 86 81 73

ECMWFNIL_850_rhum_036.txt.gz
RH
35 32 32 34 34 35 39 46 45 46 54 60 58 48 43 47 50 51 54 51 44 43 48 50 49 54 58 61 66 74 81 83 79 70 59 55 55 58 49 27 34 66
34 32 30 30 31 31 32 36 38 43 50 56 60 55 45 44 50 54 57 58 51 43 43 47 48 51 54 59 62 67 74 77 78 74 61 55 56 56 54 37 28 50
30 29 29 28 28 28 28 30 33 40 49 53 59 65 61 54 52 53 58 62 61 52 44 42 46 50 52 55 58 61 67 68 72 75 66 60 60 56 57 57 44 37
25 25 26 25 25 25 25 27 29 35 48 56 57 60 65 66 62 57 57 60 62 58 49 41 41 46 50 53 56 57 60 63 66 72 70 65 65 59 55 64 66 45
23 24 25 26 26 26 26 27 28 32 41 52 57 56 58 64 66 61 58 59 59 57 53 46 40 40 43 48 54 55 54 56 59 67 71 68 66 66 58 58 71 66
23 24 25 26 27 27 28 28 29 34 39 45 52 53 51 54 58 59 60 60 58 56 56 51 42 39 39 42 48 53 52 51 52 58 67 70 67 67 64 55 56 67
22 23 24 26 27 28 29 30 31 36 40 44 48 47 46 47 47 51 58 63 62 58 56 52 44 38 37 37 41 46 49 51 52 52 58 68 72 68 66 58 46 49
22 23 24 25 27 28 29 31 35 36 38 44 48 47 45 45 43 43 50 60 65 64 60 55 49 42 38 37 36 38 42 46 51 52 53 63 74 72 66 63 52 42
23 23 24 25 26 28 28 29 33 35 37 42 47 50 50 46 44 42 42 47 57 64 64 59 54 50 45 41 37 34 36 39 43 49 52 57 66 70 68 66 61 49
26 25 23 24 25 26 27 27 29 31 34 38 42 51 54 47 43 44 42 40 45 55 61 59 56 54 52 50 45 37 34 35 38 43 50 55 56 59 63 63 62 57
25 25 22 22 23 24 24 25 27 30 33 35 38 44 50 48 45 44 44 41 39 44 51 54 55 56 56 53 50 44 38 35 35 39 44 51 52 53 57 58 59 60
21 23 24 21 21 22 23 24 27 33 35 35 35 37 42 48 48 43 40 39 35 36 43 48 51 55 56 53 51 50 47 40 37 38 39 44 48 50 52 55 57 61
20 20 25 25 21 21 24 27 31 37 42 40 38 39 42 47 49 44 36 34 33 32 36 43 48 52 54 53 51 53 53 47 41 40 39 40 43 47 52 56 57 58
26 19 21 23 22 22 25 31 37 42 47 47 47 49 51 50 51 47 39 35 36 34 33 38 45 50 54 54 52 53 56 54 46 43 43 42 41 43 49 57 60 56
38 28 21 20 22 23 24 29 36 42 46 48 51 54 54 52 53 56 52 46 42 38 36 38 42 45 49 52 51 51 55 58 53 48 49 50 47 43 44 50 56 57
49 40 30 24 22 23 23 25 32 39 44 47 51 54 54 52 54 60 62 59 54 48 43 42 43 44 42 42 45 46 49 55 58 54 54 55 54 50 47 47 51 56
52 47 41 33 26 23 24 26 31 36 40 43 48 52 54 53 53 58 62 65 66 63 55 49 46 44 39 34 35 38 42 48 53 54 54 55 55 55 54 52 51 55
53 50 47 40 32 28 27 27 30 34 38 41 44 49 53 54 53 54 57 61 67 71 69 60 49 42 38 35 32 32 35 41 45 50 53 55 54 54 55 57 58 58
57 55 51 45 37 33 31 31 33 34 36 38 39 44 50 53 51 50 52 55 60 66 72 70 62 51 43 40 38 35 34 36 39 44 48 51 53 53 54 56 58 60
60 58 55 52 46 42 40 38 36 33 33 36 40 44 47 49 50 50 50 51 54 57 64 69 70 65 56 48 44 40 39 38 38 40 43 47 49 52 53 52 55 59
60 60 58 57 55 52 49 45 41 36 37 40 44 46 46 46 49 51 52 52 53 55 59 62 65 68 66 61 53 47 44 42 42 43 44 47 50 52 54 54 55 59
58 61 61 59 59 59 57 53 49 45 43 45 47 50 51 50 50 53 55 56 56 58 58 57 58 63 66 66 64 61 57 52 50 51 50 49 53 56 58 58 59 62
56 60 62 62 62 62 61 57 56 55 53 53 54 55 58 57 55 53 55 57 58 59 58 54 55 61 66 69 71 72 72 66 60 59 57 55 55 58 62 64 64 64
55 58 61 63 63 64 64 62 61 61 61 61 60 58 59 62 63 61 60 59 59 60 60 59 57 59 64 71 76 78 79 77 71 67 64 61 61 64 67 69 69 67
54 56 59 63 64 65 68 66 64 63 64 66 64 60 60 65 69 71 70 68 68 66 66 67 65 63 63 67 74 78 80 81 81 79 73 70 71 73 73 73 73 74
54 56 58 65 68 69 70 68 66 65 67 69 69 67 67 68 71 74 75 77 79 77 74 73 72 71 68 67 71 77 78 79 82 84 81 79 80 80 78 77 76 77